Location: Naloco
(16.5478°S, 37.1017°E)
Time: 00:48:55
(UTC+00:00)

Cosmos 2366 rocket - Pass Details

Date: 13 August 2020
Orbit: 955 x 997 km, 82.9° (Epoch: 23 September)

Event Time Altitude Azimuth Distance (km) Brightness Sun altitude
Rises 16:21:20 0° 189° (S) 3,729 7.0 -14.6°
Reaches altitude 10° 16:23:54 10° 191° (SSW) 2,772 6.4 -15.2°
Maximum altitude 16:30:12 66° 272° (W) 1,073 4.4 -16.7°
Drops below altitude 10° 16:36:24 10° 354° (N) 2,725 6.5 -18.1°
Sets 16:38:54 0° 356° (N) 3,661 7.2 -18.7°
